Tegucigalpa, Honduras

1:15 PM CST on December 09, 2016 (GMT -0600)
Toncontin International

Weather History for MHTG - April, 2014

Change the Weather History Date:

Thursday, April 10, 2014

  Actual Average Record
Temperature  
Mean Temperature 70 °F -  
Max Temperature 82 °F 85 °F 95 °F (2004)
Min Temperature 59 °F 63 °F 59 °F (2001)
Cooling Degree Days 6    
Growing Degree Days 20 (Base 50)    
Moisture  
Dew Point 52 °F    
Average Humidity 53    
Maximum Humidity 77    
Minimum Humidity 30    
Precipitation  
Precipitation 0.00 in 0.10 in - ()
Sea Level Pressure  
Sea Level Pressure 30.12 in    
Wind  
Wind Speed 11 mph ()    
Max Wind Speed 25 mph    
Max Gust Speed 25 mph    
Visibility 6.5 miles    
Events      
Averages and records for this station are not official NWS values.
T = Trace of Precipitation, MM = Missing Value Source: Averaged Metar Reports

Daily Weather History Graph

Daily Weather History Graph

Search for Another Location

Airport or City:

Trip Planner

Search our weather history database for the weather conditions in past years. The results will help you decide how hot, cold, wet, or windy it might be!

Date:

Astronomy

Apr. 10, 2014 Rise Set
Actual Time 5:38 AM CST 6:01 PM CST
Civil Twilight 5:17 AM CST 6:23 PM CST
Nautical Twilight 4:51 AM CST 6:48 PM CST
Astronomical Twilight 4:26 AM CST 7:13 PM CST
Moon 2:24 PM CST (4/10) 2:18 AM CST (4/10)
Length of Visible Light 13h 06m
Length of Day
12h 23m
Waxing Gibbous, 80% of the Moon is Illuminated
Apr 10
Waxing Gibbous
Apr 15
Full
Apr 22
Last Quarter
Apr 29
New
May 6
First Quarter

Hourly Weather History & Observations

Time (CST) Temp. Heat Index Dew Point Humidity Pressure Visibility Wind Dir Wind Speed Gust Speed Precip Events Conditions
12:00 AM 61 °F - 51 °F 62% 30.18 in 6 mi North 11.5 mph - -   Smoke
12:00 AM 60.8 °F - 51.8 °F 72% 30.21 in 6.2 mi North 11.5 mph - N/A   Partly Cloudy
1:00 AM 60.8 °F - 51.8 °F 72% 30.21 in 6.2 mi North 13.8 mph - N/A   Partly Cloudy
2:00 AM 59.0 °F - 51.8 °F 77% 30.18 in 6.2 mi North 11.5 mph - N/A   Partly Cloudy
3:00 AM 59 °F - 50 °F 63% 29.89 in 6 mi North 11.5 mph - -   Smoke
3:00 AM 59.0 °F - 50.0 °F 72% 30.18 in 6.2 mi North 11.5 mph - N/A   Partly Cloudy
4:00 AM 60.8 °F - 46.4 °F 59% 30.15 in 6.2 mi North 11.5 mph - N/A   Scattered Clouds
5:00 AM 60.8 °F - 44.6 °F 55% 30.18 in 6.2 mi North 11.5 mph - N/A   Scattered Clouds
6:00 AM 60 °F - 43 °F 41% 30.14 in 6 mi North 9.2 mph - -   Smoke
6:00 AM 59.0 °F - 42.8 °F 55% 30.18 in 6.2 mi North 9.2 mph - N/A   Partly Cloudy
7:00 AM 62.6 °F - 48.2 °F 59% 30.12 in 6.2 mi North 11.5 mph - N/A   Partly Cloudy
8:00 AM 66.2 °F - 48.2 °F 52% 30.21 in 6.2 mi North 18.4 mph - N/A   Partly Cloudy
9:00 AM 69 °F - 50 °F 40% 30.11 in 10 mi North 25.3 mph - -   Smoke
9:00 AM 69.8 °F - 50.0 °F 49% 30.21 in 6.2 mi North 13.8 mph 25.3 mph N/A   Partly Cloudy
10:00 AM 73.4 °F - 50.0 °F 44% 30.21 in 6.2 mi North 11.5 mph 23.0 mph N/A   Partly Cloudy
11:00 AM 78.8 °F - 53.6 °F 42% 30.18 in 6.2 mi North 20.7 mph - N/A   Partly Cloudy
12:00 PM 79 °F - 53 °F 30% 29.99 in 10 mi North 23.0 mph - -   Smoke
12:00 PM 78.8 °F - 53.6 °F 42% 30.15 in 6.2 mi North 23.0 mph - N/A   Partly Cloudy
1:00 PM 82.4 °F 81.4 °F 53.6 °F 37% 30.12 in 6.2 mi ENE 9.2 mph - N/A   Scattered Clouds
2:00 PM 80.6 °F 80.5 °F 55.4 °F 42% 30.09 in 6.2 mi East 9.2 mph - N/A   Mostly Cloudy
3:00 PM 77 °F - 54 °F 34% 29.94 in 9 mi NE 6.9 mph - -   Haze
3:00 PM 77.0 °F - 55.4 °F 47% 10.19 in 6.2 mi NE 6.9 mph - N/A   Mostly Cloudy
4:00 PM 77.0 °F - 55.4 °F 47% 30.06 in 6.2 mi North 11.5 mph - N/A   Mostly Cloudy
5:00 PM 75.2 °F - 55.4 °F 50% 30.09 in 6.2 mi NNE 9.2 mph - N/A   Mostly Cloudy
6:00 PM 74 °F - 57 °F 44% 29.97 in 6 mi North 11.5 mph - -   Smoke
6:00 PM 73.4 °F - 53.6 °F 50% 30.09 in 6.2 mi North 11.5 mph - N/A   Mostly Cloudy
7:00 PM 73.4 °F - 57.2 °F 57% 30.12 in 6.2 mi North 8.1 mph - N/A   Mostly Cloudy
8:00 PM 71.6 °F - 57.2 °F 60% 30.12 in 6.2 mi North 11.5 mph - N/A   Scattered Clouds
9:00 PM 71 °F - 58 °F 56% 30.05 in 6 mi North 11.5 mph - -   Haze
9:00 PM 71.6 °F - 59.0 °F 64% 30.15 in 6.2 mi North 11.5 mph - N/A   Mostly Cloudy
10:00 PM 69.8 °F - 59.0 °F 68% 30.15 in 6.2 mi North 13.8 mph - N/A   Mostly Cloudy
11:00 PM 69.8 °F - 59.0 °F 68% 30.18 in 6.2 mi North 13.8 mph - N/A   Mostly Cloudy